Year,Month,Day,Hour,Minute,Value (Times are PST for temperature in C)
2019,02,04,00,00,-4.10
2019,02,04,00,01,-4.10
2019,02,04,00,02,-4.10
2019,02,04,00,03,-4.10
2019,02,04,00,04,-4.10
2019,02,04,00,05,-4.10
2019,02,04,00,06,-4.10
2019,02,04,00,07,-4.10
2019,02,04,00,08,-4.10
2019,02,04,00,09,-4.10
2019,02,04,00,10,-4.10
2019,02,04,00,11,-4.10
2019,02,04,00,12,-4.10
2019,02,04,00,13,-4.10
2019,02,04,00,14,-4.10
2019,02,04,00,15,-4.10
2019,02,04,00,16,-4.10
2019,02,04,00,17,-4.10
2019,02,04,00,18,-4.10
2019,02,04,00,19,-4.10
2019,02,04,00,20,-4.00
2019,02,04,00,21,-4.00
2019,02,04,00,22,-4.00
2019,02,04,00,23,-4.00
2019,02,04,00,24,-4.00
2019,02,04,00,25,-4.00
2019,02,04,00,26,-4.00
2019,02,04,00,27,-4.10
2019,02,04,00,28,-4.10
2019,02,04,00,29,-4.10
2019,02,04,00,30,-4.10
2019,02,04,00,31,-4.00
2019,02,04,00,32,-4.00
2019,02,04,00,33,-4.00
2019,02,04,00,34,-4.00
2019,02,04,00,35,-4.00
2019,02,04,00,36,-4.00
2019,02,04,00,37,-4.00
2019,02,04,00,38,-4.00
2019,02,04,00,39,-4.00
2019,02,04,00,40,-4.10
2019,02,04,00,41,-4.10
2019,02,04,00,42,-4.10
2019,02,04,00,43,-4.10
2019,02,04,00,44,-4.10
2019,02,04,00,45,-4.10
2019,02,04,00,46,-4.10
2019,02,04,00,47,-4.10
2019,02,04,00,48,-4.10
2019,02,04,00,49,-4.10
2019,02,04,00,50,-4.10
2019,02,04,00,51,-4.10
2019,02,04,00,52,-4.10
2019,02,04,00,53,-4.10
2019,02,04,00,54,-4.10
2019,02,04,00,55,-4.10
2019,02,04,00,56,-4.10
2019,02,04,00,57,-4.10
2019,02,04,00,58,-4.10
2019,02,04,00,59,-4.10
2019,02,04,01,00,-4.10
2019,02,04,01,01,-4.10
2019,02,04,01,02,-4.20
2019,02,04,01,03,-4.20
2019,02,04,01,04,-4.20
2019,02,04,01,05,-4.20
2019,02,04,01,06,-4.20
2019,02,04,01,07,-4.30
2019,02,04,01,08,-4.30
2019,02,04,01,09,-4.30
2019,02,04,01,10,-4.30
2019,02,04,01,11,-4.30
2019,02,04,01,12,-4.30
2019,02,04,01,13,-4.30
2019,02,04,01,14,-4.30
2019,02,04,01,15,-4.30
2019,02,04,01,16,-4.30
2019,02,04,01,17,-4.30
2019,02,04,01,18,-4.30
2019,02,04,01,19,-4.30
2019,02,04,01,20,-4.30
2019,02,04,01,21,-4.30
2019,02,04,01,22,-4.30
2019,02,04,01,23,-4.30
2019,02,04,01,24,-4.30
2019,02,04,01,25,-4.30
2019,02,04,01,26,-4.30
2019,02,04,01,27,-4.30
2019,02,04,01,28,-4.40
2019,02,04,01,29,-4.40
2019,02,04,01,30,-4.40
2019,02,04,01,31,-4.40
2019,02,04,01,32,-4.40
2019,02,04,01,33,-4.40
2019,02,04,01,34,-4.40
2019,02,04,01,35,-4.40
2019,02,04,01,36,-4.40
2019,02,04,01,37,-4.40
2019,02,04,01,38,-4.40
2019,02,04,01,39,-4.40
2019,02,04,01,40,-4.40
2019,02,04,01,41,-4.40
2019,02,04,01,42,-4.40
2019,02,04,01,43,-4.40
2019,02,04,01,44,-4.40
2019,02,04,01,45,-4.40
2019,02,04,01,46,-4.40
2019,02,04,01,47,-4.40
2019,02,04,01,48,-4.40
2019,02,04,01,49,-4.40
2019,02,04,01,50,-4.40
2019,02,04,01,51,-4.40
2019,02,04,01,52,-4.40
2019,02,04,01,53,-4.40
2019,02,04,01,54,-4.40
2019,02,04,01,55,-4.40
2019,02,04,01,56,-4.40
2019,02,04,01,57,-4.40
2019,02,04,01,58,-4.40
2019,02,04,01,59,-4.40
2019,02,04,02,00,-4.40
2019,02,04,02,01,-4.40
2019,02,04,02,02,-4.40
2019,02,04,02,03,-4.50
2019,02,04,02,04,-4.40
2019,02,04,02,05,-4.50
2019,02,04,02,06,-4.50
2019,02,04,02,07,-4.50
2019,02,04,02,08,-4.50
2019,02,04,02,09,-4.50
2019,02,04,02,10,-4.50
2019,02,04,02,11,-4.50
2019,02,04,02,12,-4.50
2019,02,04,02,13,-4.50
2019,02,04,02,14,-4.40
2019,02,04,02,15,-4.40
2019,02,04,02,16,-4.40
2019,02,04,02,17,-4.40
2019,02,04,02,18,-4.40
2019,02,04,02,19,-4.40
2019,02,04,02,20,-4.40
2019,02,04,02,21,-4.30
2019,02,04,02,22,-4.30
2019,02,04,02,23,-4.30
2019,02,04,02,24,-4.40
2019,02,04,02,25,-4.40
2019,02,04,02,26,-4.30
2019,02,04,02,27,-4.30
2019,02,04,02,28,-4.30
2019,02,04,02,29,-4.30
2019,02,04,02,30,-4.30
2019,02,04,02,31,-4.30
2019,02,04,02,32,-4.30
2019,02,04,02,33,-4.30
2019,02,04,02,34,-4.20
2019,02,04,02,35,-4.20
2019,02,04,02,36,-4.20
2019,02,04,02,37,-4.20
2019,02,04,02,38,-4.20
2019,02,04,02,39,-4.20
2019,02,04,02,40,-4.20
2019,02,04,02,41,-4.20
2019,02,04,02,42,-4.20
2019,02,04,02,43,-4.10
2019,02,04,02,44,-4.10
2019,02,04,02,45,-4.10
2019,02,04,02,46,-4.10
2019,02,04,02,47,-4.00
2019,02,04,02,48,-4.00
2019,02,04,02,49,-3.90
2019,02,04,02,50,-3.90
2019,02,04,02,51,-3.90
2019,02,04,02,52,-3.90
2019,02,04,02,53,-3.80
2019,02,04,02,54,-3.80
2019,02,04,02,55,-3.80
2019,02,04,02,56,-3.80
2019,02,04,02,57,-3.80
2019,02,04,02,58,-3.70
2019,02,04,02,59,-3.70
2019,02,04,03,00,-3.70
2019,02,04,03,01,-3.70
2019,02,04,03,02,-3.70
2019,02,04,03,03,-3.70
2019,02,04,03,04,-3.70
2019,02,04,03,05,-3.70
2019,02,04,03,06,-3.70
2019,02,04,03,07,-3.70
2019,02,04,03,08,-3.70
2019,02,04,03,09,-3.70
2019,02,04,03,10,-3.70
2019,02,04,03,11,-3.60
2019,02,04,03,12,-3.60
2019,02,04,03,13,-3.60
2019,02,04,03,14,-3.60
2019,02,04,03,15,-3.60
2019,02,04,03,16,-3.60
2019,02,04,03,17,-3.60
2019,02,04,03,18,-3.60
2019,02,04,03,19,-3.60
2019,02,04,03,20,-3.60
2019,02,04,03,21,-3.60
2019,02,04,03,22,-3.60
2019,02,04,03,23,-3.60
2019,02,04,03,24,-3.60
2019,02,04,03,25,-3.60
2019,02,04,03,26,-3.60
2019,02,04,03,27,-3.60
2019,02,04,03,28,-3.60
2019,02,04,03,29,-3.60
2019,02,04,03,30,-3.60
2019,02,04,03,31,-3.60
2019,02,04,03,32,-3.60
2019,02,04,03,33,-3.60
2019,02,04,03,34,-3.60
2019,02,04,03,35,-3.60
2019,02,04,03,36,-3.60
2019,02,04,03,37,-3.60
2019,02,04,03,38,-3.60
2019,02,04,03,39,-3.60
2019,02,04,03,40,-3.60
2019,02,04,03,41,-3.60
2019,02,04,03,42,-3.60
2019,02,04,03,43,-3.60
2019,02,04,03,44,-3.60
2019,02,04,03,45,-3.60
2019,02,04,03,46,-3.70
2019,02,04,03,47,-3.70
2019,02,04,03,48,-3.70
2019,02,04,03,49,-3.70
2019,02,04,03,50,-3.70
2019,02,04,03,51,-3.70
2019,02,04,03,52,-3.70
2019,02,04,03,53,-3.70
2019,02,04,03,54,-3.60
2019,02,04,03,55,-3.60
2019,02,04,03,56,-3.70
2019,02,04,03,57,-3.70
2019,02,04,03,58,-3.70
2019,02,04,03,59,-3.70
2019,02,04,04,00,-3.70
2019,02,04,04,01,-3.70
2019,02,04,04,02,-3.80
2019,02,04,04,03,-3.80
2019,02,04,04,04,-3.80
2019,02,04,04,05,-3.80
2019,02,04,04,06,-3.80
2019,02,04,04,07,-3.80
2019,02,04,04,08,-3.90
2019,02,04,04,09,-3.90
2019,02,04,04,10,-3.90
2019,02,04,04,11,-4.00
2019,02,04,04,12,-4.00
2019,02,04,04,13,-4.10
2019,02,04,04,14,-4.10
2019,02,04,04,15,-4.10
2019,02,04,04,16,-4.10
2019,02,04,04,17,-4.10
2019,02,04,04,18,-4.10
2019,02,04,04,19,-4.10
2019,02,04,04,20,-4.10
2019,02,04,04,21,-4.10
2019,02,04,04,22,-4.10
2019,02,04,04,23,-4.10
2019,02,04,04,24,-4.10
2019,02,04,04,25,-4.10
2019,02,04,04,26,-4.10
2019,02,04,04,27,-4.10
2019,02,04,04,28,-4.10
2019,02,04,04,29,-4.20
2019,02,04,04,30,-4.20
2019,02,04,04,31,-4.20
2019,02,04,04,32,-4.20
2019,02,04,04,33,-4.20
2019,02,04,04,34,-4.20
2019,02,04,04,35,-4.20
2019,02,04,04,36,-4.20
2019,02,04,04,37,-4.20
2019,02,04,04,38,-4.20
2019,02,04,04,39,-4.20
2019,02,04,04,40,-4.30
2019,02,04,04,41,-4.30
2019,02,04,04,42,-4.30
2019,02,04,04,43,-4.20
2019,02,04,04,44,-4.20
2019,02,04,04,45,-4.30
2019,02,04,04,46,-4.20
2019,02,04,04,47,-4.30
2019,02,04,04,48,-4.30
2019,02,04,04,49,-4.30
2019,02,04,04,50,-4.30
2019,02,04,04,51,-4.30
2019,02,04,04,52,-4.30
2019,02,04,04,53,-4.30
2019,02,04,04,54,-4.30
2019,02,04,04,55,-4.30
2019,02,04,04,56,-4.30
2019,02,04,04,57,-4.30
2019,02,04,04,58,-4.30
2019,02,04,04,59,-4.30
2019,02,04,05,00,-4.30
2019,02,04,05,01,-4.30
2019,02,04,09,15,-4.50
2019,02,04,09,16,-4.50
2019,02,04,09,17,-4.40
2019,02,04,09,18,-4.40
2019,02,04,09,19,-4.30
2019,02,04,09,20,-4.30
2019,02,04,09,21,-4.30
2019,02,04,09,22,-4.30
2019,02,04,09,23,-4.40
2019,02,04,09,24,-4.40
2019,02,04,09,25,-4.50
2019,02,04,09,26,-4.50
2019,02,04,09,27,-4.50
2019,02,04,09,28,-4.60
2019,02,04,09,29,-4.60
2019,02,04,09,30,-4.60
2019,02,04,09,31,-4.60
2019,02,04,09,32,-4.60
2019,02,04,09,33,-4.60
2019,02,04,09,34,-4.60
2019,02,04,09,35,-4.60
2019,02,04,09,36,-4.60
2019,02,04,09,37,-4.70
2019,02,04,09,38,-4.70
2019,02,04,09,39,-4.70
2019,02,04,09,40,-4.70
2019,02,04,09,41,-4.70
2019,02,04,09,42,-4.60
2019,02,04,09,43,-4.60
2019,02,04,09,44,-4.60
2019,02,04,09,45,-4.60
2019,02,04,09,46,-4.60
2019,02,04,09,47,-4.60
2019,02,04,09,48,-4.60
2019,02,04,09,49,-4.60
2019,02,04,09,50,-4.60
2019,02,04,09,51,-4.60
2019,02,04,09,52,-4.50
2019,02,04,09,53,-4.50
2019,02,04,09,54,-4.50
2019,02,04,09,55,-4.50
2019,02,04,09,56,-4.60
2019,02,04,09,57,-4.60
2019,02,04,09,58,-4.60
2019,02,04,09,59,-4.60
2019,02,04,10,00,-4.60
2019,02,04,10,01,-4.60
2019,02,04,10,02,-4.60
2019,02,04,10,03,-4.60
2019,02,04,10,04,-4.60
2019,02,04,10,05,-4.60
2019,02,04,10,06,-4.60
2019,02,04,10,07,-4.60
2019,02,04,10,08,-4.70
2019,02,04,10,09,-4.60
2019,02,04,10,10,-4.60
2019,02,04,10,11,-4.60
2019,02,04,10,12,-4.70
2019,02,04,10,13,-4.70
2019,02,04,10,14,-4.70
2019,02,04,10,15,-4.70
2019,02,04,10,16,-4.70
2019,02,04,10,17,-4.70
2019,02,04,10,18,-4.70
2019,02,04,10,19,-4.70
2019,02,04,10,20,-4.70
2019,02,04,10,21,-4.70
2019,02,04,10,22,-4.60
2019,02,04,10,23,-4.60
2019,02,04,10,24,-4.60
2019,02,04,10,25,-4.50
2019,02,04,10,26,-4.40
2019,02,04,10,27,-4.40
2019,02,04,10,28,-4.40
2019,02,04,10,29,-4.30
2019,02,04,10,30,-4.30
2019,02,04,10,31,-4.20
2019,02,04,10,32,-4.20
2019,02,04,10,33,-4.20
2019,02,04,10,34,-4.10
2019,02,04,10,35,-4.00
2019,02,04,10,36,-4.00
2019,02,04,10,37,-4.00
2019,02,04,10,38,-4.00
2019,02,04,10,39,-4.10
2019,02,04,10,40,-4.00
2019,02,04,10,41,-4.00
2019,02,04,10,42,-4.00
2019,02,04,10,43,-3.90
2019,02,04,10,44,-3.90
2019,02,04,10,45,-3.90
2019,02,04,10,46,-3.90
2019,02,04,10,47,-3.90
2019,02,04,10,48,-3.90
2019,02,04,10,49,-3.90
2019,02,04,10,50,-3.90
2019,02,04,10,51,-3.90
2019,02,04,10,52,-3.90
2019,02,04,10,53,-3.80
2019,02,04,10,54,-3.80
2019,02,04,10,55,-3.80
2019,02,04,10,56,-3.70
2019,02,04,10,57,-3.70
2019,02,04,10,58,-3.60
2019,02,04,10,59,-3.60
2019,02,04,11,00,-3.60
2019,02,04,11,01,-3.50
2019,02,04,11,02,-3.50
2019,02,04,11,03,-3.50
2019,02,04,11,04,-3.50
2019,02,04,11,05,-3.40
2019,02,04,11,06,-3.40
2019,02,04,11,07,-3.30
2019,02,04,11,08,-3.30
2019,02,04,11,09,-3.30
2019,02,04,11,10,-3.20
2019,02,04,11,11,-3.20
2019,02,04,11,12,-3.20
2019,02,04,11,13,-3.10
2019,02,04,11,14,-3.10
2019,02,04,11,15,-3.10
2019,02,04,11,16,-3.10
2019,02,04,11,17,-3.10
2019,02,04,11,18,-3.10
2019,02,04,11,19,-3.00
2019,02,04,11,20,-2.90
2019,02,04,11,21,-2.90
2019,02,04,11,22,-2.90
2019,02,04,11,23,-2.80
2019,02,04,11,24,-2.80
2019,02,04,11,25,-2.70
2019,02,04,11,26,-2.60
2019,02,04,11,27,-2.60
2019,02,04,11,28,-2.60
2019,02,04,11,29,-2.60
2019,02,04,11,30,-2.60
2019,02,04,11,31,-2.60
2019,02,04,11,32,-2.60
2019,02,04,11,33,-2.60
2019,02,04,11,34,-2.70
2019,02,04,11,35,-2.70
2019,02,04,11,36,-2.80
2019,02,04,11,37,-2.80
2019,02,04,11,38,-2.80
2019,02,04,11,39,-2.80
2019,02,04,11,40,-2.80
2019,02,04,11,41,-2.70
2019,02,04,11,42,-2.70
2019,02,04,11,43,-2.70
2019,02,04,11,44,-2.60
2019,02,04,11,45,-2.50
2019,02,04,11,46,-2.50
2019,02,04,11,47,-2.40
2019,02,04,11,48,-2.50
2019,02,04,11,49,-2.60
2019,02,04,11,50,-2.60
2019,02,04,11,51,-2.70
2019,02,04,11,52,-2.70
2019,02,04,11,53,-2.70
2019,02,04,11,54,-2.70
2019,02,04,11,55,-2.70
2019,02,04,11,56,-2.60
2019,02,04,11,57,-2.50
2019,02,04,11,58,-2.40
2019,02,04,11,59,-2.40
2019,02,04,12,00,-2.30
2019,02,04,12,01,-2.30
2019,02,04,12,02,-2.30
2019,02,04,12,03,-2.40
2019,02,04,12,04,-2.40
2019,02,04,12,05,-2.40
2019,02,04,12,06,-2.40
2019,02,04,12,07,-2.40
2019,02,04,12,08,-2.30
2019,02,04,12,09,-2.30
2019,02,04,12,10,-2.40
2019,02,04,12,11,-2.40
2019,02,04,12,12,-2.40
2019,02,04,12,13,-2.40
2019,02,04,12,14,-2.40
2019,02,04,12,15,-2.40
2019,02,04,12,16,-2.40
2019,02,04,12,17,-2.40
2019,02,04,12,18,-2.40
2019,02,04,12,19,-2.40
2019,02,04,12,20,-2.40
2019,02,04,12,21,-2.40
2019,02,04,12,22,-2.40
2019,02,04,12,23,-2.40
2019,02,04,12,24,-2.40
2019,02,04,12,25,-2.30
2019,02,04,12,26,-2.30
2019,02,04,12,27,-2.30
2019,02,04,12,28,-2.30
2019,02,04,12,29,-2.40
2019,02,04,12,30,-2.40
2019,02,04,12,31,-2.40
2019,02,04,12,32,-2.40
2019,02,04,12,33,-2.40
2019,02,04,12,34,-2.40
2019,02,04,12,35,-2.40
2019,02,04,12,36,-2.40
2019,02,04,12,37,-2.40
2019,02,04,12,38,-2.40
2019,02,04,12,39,-2.30
2019,02,04,12,40,-2.20
2019,02,04,12,41,-2.20
2019,02,04,12,42,-2.20
2019,02,04,12,43,-2.20
2019,02,04,12,44,-2.20
2019,02,04,12,45,-2.20
2019,02,04,12,46,-2.20
2019,02,04,12,47,-2.20
2019,02,04,12,48,-2.20
2019,02,04,12,49,-2.10
2019,02,04,12,50,-2.10
2019,02,04,12,51,-2.10
2019,02,04,12,52,-2.00
2019,02,04,12,53,-1.90
2019,02,04,12,54,-1.90
2019,02,04,12,55,-1.90
2019,02,04,12,56,-1.90
2019,02,04,12,57,-1.80
2019,02,04,12,58,-1.80
2019,02,04,12,59,-1.80
2019,02,04,13,00,-1.80
2019,02,04,13,01,-1.70
2019,02,04,13,02,-1.70
2019,02,04,13,03,-1.80
2019,02,04,13,04,-1.80
2019,02,04,13,05,-1.80
2019,02,04,13,06,-1.80
2019,02,04,13,07,-1.80
2019,02,04,13,08,-1.90
2019,02,04,13,09,-1.90
2019,02,04,13,10,-2.00
2019,02,04,13,11,-2.00
2019,02,04,13,12,-2.10
2019,02,04,13,13,-2.10
2019,02,04,13,14,-2.10
2019,02,04,13,15,-2.00
2019,02,04,13,16,-2.00
2019,02,04,13,17,-2.00
2019,02,04,13,18,-2.00
2019,02,04,13,19,-2.00
2019,02,04,13,20,-2.00
2019,02,04,13,21,-1.90
2019,02,04,13,22,-1.90
2019,02,04,13,23,-1.90
2019,02,04,13,24,-1.80
2019,02,04,13,25,-1.80
2019,02,04,13,26,-1.80
2019,02,04,13,27,-1.90
2019,02,04,13,28,-1.90
2019,02,04,13,29,-2.00
2019,02,04,13,30,-2.00
2019,02,04,13,31,-1.90
2019,02,04,13,32,-2.00
2019,02,04,13,33,-2.00
2019,02,04,13,34,-2.00
2019,02,04,13,35,-1.90
2019,02,04,13,36,-1.90
2019,02,04,13,37,-1.80
2019,02,04,13,38,-1.90
2019,02,04,13,39,-1.90
2019,02,04,13,40,-1.90
2019,02,04,13,41,-1.80
2019,02,04,13,42,-1.80
2019,02,04,13,43,-1.70
2019,02,04,13,44,-1.70
2019,02,04,13,45,-1.70
2019,02,04,13,46,-1.60
2019,02,04,13,47,-1.50
2019,02,04,13,48,-1.40
2019,02,04,13,49,-1.40
2019,02,04,13,50,-1.40
2019,02,04,13,51,-1.40
2019,02,04,13,52,-1.40
2019,02,04,13,53,-1.40
2019,02,04,13,54,-1.40
2019,02,04,13,55,-1.30
2019,02,04,13,56,-1.30
2019,02,04,13,57,-1.30
2019,02,04,13,58,-1.30
2019,02,04,13,59,-1.30
2019,02,04,14,00,-1.30
2019,02,04,14,01,-1.20
2019,02,04,14,02,-1.20
2019,02,04,14,03,-1.20
2019,02,04,14,04,-1.20
2019,02,04,14,05,-1.20
2019,02,04,14,06,-1.20
2019,02,04,14,07,-1.20
2019,02,04,14,08,-1.20
2019,02,04,14,09,-1.20
2019,02,04,14,10,-1.20
2019,02,04,14,11,-1.20
2019,02,04,14,12,-1.20
2019,02,04,14,13,-1.30
2019,02,04,14,14,-1.30
2019,02,04,14,15,-1.20
2019,02,04,14,16,-1.10
2019,02,04,14,17,-1.10
2019,02,04,14,18,-1.20
2019,02,04,14,19,-1.20
2019,02,04,14,20,-1.30
2019,02,04,14,21,-1.30
2019,02,04,14,22,-1.30
2019,02,04,14,23,-1.30
2019,02,04,14,24,-1.30
2019,02,04,14,25,-1.30
2019,02,04,14,26,-1.40
2019,02,04,14,27,-1.50
2019,02,04,14,28,-1.50
2019,02,04,14,29,-1.60
2019,02,04,14,30,-1.50
2019,02,04,14,31,-1.50
2019,02,04,14,32,-1.40
2019,02,04,14,33,-1.40
2019,02,04,14,34,-1.40
2019,02,04,14,35,-1.40
2019,02,04,14,36,-1.40
2019,02,04,14,37,-1.30
2019,02,04,14,38,-1.20
2019,02,04,14,39,-1.20
2019,02,04,14,40,-1.20
2019,02,04,14,41,-1.20
2019,02,04,14,42,-1.20
2019,02,04,14,43,-1.20
2019,02,04,14,44,-1.30
2019,02,04,14,45,-1.30
2019,02,04,14,46,-1.40
2019,02,04,14,47,-1.50
2019,02,04,14,48,-1.50
2019,02,04,14,49,-1.50
2019,02,04,14,50,-1.50
2019,02,04,14,51,-1.50
2019,02,04,14,52,-1.50
2019,02,04,14,53,-1.40
2019,02,04,14,54,-1.40
2019,02,04,14,55,-1.30
2019,02,04,14,56,-1.30
2019,02,04,14,57,-1.30
2019,02,04,14,58,-1.30
2019,02,04,14,59,-1.30
2019,02,04,15,00,-1.30
2019,02,04,15,01,-1.40
2019,02,04,15,02,-1.40
2019,02,04,15,03,-1.40
2019,02,04,15,04,-1.40
2019,02,04,15,05,-1.40
2019,02,04,15,06,-1.40
2019,02,04,15,07,-1.40
2019,02,04,15,08,-1.40
2019,02,04,15,09,-1.40
2019,02,04,15,10,-1.40
2019,02,04,15,11,-1.40
2019,02,04,15,12,-1.40
2019,02,04,15,13,-1.40
2019,02,04,15,14,-1.50
2019,02,04,15,15,-1.50
2019,02,04,15,16,-1.50
2019,02,04,15,17,-1.50
2019,02,04,15,18,-1.60
2019,02,04,15,19,-1.60
2019,02,04,15,20,-1.60
2019,02,04,15,21,-1.60
2019,02,04,15,22,-1.70
2019,02,04,15,23,-1.60
2019,02,04,15,24,-1.60
2019,02,04,15,25,-1.60
2019,02,04,15,26,-1.60
2019,02,04,15,27,-1.50
2019,02,04,15,28,-1.50
2019,02,04,15,29,-1.50
2019,02,04,15,30,-1.40
2019,02,04,15,31,-1.40
2019,02,04,15,32,-1.40
2019,02,04,15,33,-1.40
2019,02,04,15,34,-1.50
2019,02,04,15,35,-1.50
2019,02,04,15,36,-1.50
2019,02,04,15,37,-1.50
2019,02,04,15,38,-1.50
2019,02,04,15,39,-1.50
2019,02,04,15,40,-1.50
2019,02,04,15,41,-1.50
2019,02,04,15,42,-1.60
2019,02,04,15,43,-1.60
2019,02,04,15,44,-1.60
2019,02,04,15,45,-1.60
2019,02,04,15,46,-1.60
2019,02,04,15,47,-1.50
2019,02,04,15,48,-1.50
2019,02,04,15,49,-1.50
2019,02,04,15,50,-1.50
2019,02,04,15,51,-1.60
2019,02,04,15,52,-1.50
2019,02,04,15,53,-1.50
2019,02,04,15,54,-1.50
2019,02,04,15,55,-1.50
2019,02,04,15,56,-1.50
2019,02,04,15,57,-1.60
2019,02,04,15,58,-1.60
2019,02,04,15,59,-1.60
2019,02,04,16,00,-1.60
2019,02,04,16,01,-1.60
2019,02,04,16,02,-1.60
2019,02,04,16,03,-1.60
2019,02,04,16,04,-1.60
2019,02,04,16,05,-1.60
2019,02,04,16,06,-1.60
2019,02,04,16,07,-1.60
2019,02,04,16,08,-1.60
2019,02,04,16,09,-1.60
2019,02,04,16,10,-1.60
2019,02,04,16,11,-1.60
2019,02,04,16,12,-1.60
2019,02,04,16,13,-1.60
2019,02,04,16,14,-1.60
2019,02,04,16,15,-1.60
2019,02,04,16,16,-1.70
2019,02,04,16,17,-1.70
2019,02,04,16,18,-1.70
2019,02,04,16,19,-1.70
2019,02,04,16,20,-1.70
2019,02,04,16,21,-1.70
2019,02,04,16,22,-1.70
2019,02,04,16,23,-1.70
2019,02,04,16,24,-1.70
2019,02,04,16,25,-1.70
2019,02,04,16,26,-1.70
2019,02,04,16,27,-1.80
2019,02,04,16,28,-1.80
2019,02,04,16,29,-1.80
2019,02,04,16,30,-1.80
2019,02,04,16,31,-1.80
2019,02,04,16,32,-1.80
2019,02,04,16,33,-1.80
2019,02,04,16,34,-1.90
2019,02,04,16,35,-1.90
2019,02,04,16,36,-1.90
2019,02,04,16,37,-1.90
2019,02,04,16,38,-1.90
2019,02,04,16,39,-1.90
2019,02,04,16,40,-1.90
2019,02,04,16,41,-2.00
2019,02,04,16,42,-2.00
2019,02,04,16,43,-2.00
2019,02,04,16,44,-2.00
2019,02,04,16,45,-2.00
2019,02,04,16,46,-2.10
2019,02,04,16,47,-2.10
2019,02,04,16,48,-2.10
2019,02,04,16,49,-2.10
2019,02,04,16,50,-2.10
2019,02,04,16,51,-2.10
2019,02,04,16,52,-2.10
2019,02,04,16,53,-2.10
2019,02,04,16,54,-2.20
2019,02,04,16,55,-2.20
2019,02,04,16,56,-2.20
2019,02,04,16,57,-2.20
2019,02,04,16,58,-2.20
2019,02,04,16,59,-2.20
2019,02,04,17,00,-2.30
2019,02,04,17,01,-2.30
2019,02,04,17,02,-2.30
2019,02,04,17,03,-2.30
2019,02,04,17,04,-2.30
2019,02,04,17,05,-2.30
2019,02,04,17,06,-2.40
2019,02,04,17,07,-2.40
2019,02,04,17,08,-2.40
2019,02,04,17,09,-2.40
2019,02,04,17,10,-2.40
2019,02,04,17,11,-2.50
2019,02,04,17,12,-2.50
2019,02,04,17,13,-2.50
2019,02,04,17,14,-2.50
2019,02,04,17,15,-2.60
2019,02,04,17,16,-2.60
2019,02,04,17,17,-2.60
2019,02,04,17,18,-2.60
2019,02,04,17,19,-2.60
2019,02,04,17,20,-2.70
2019,02,04,17,21,-2.70
2019,02,04,17,22,-2.70
2019,02,04,17,23,-2.70
2019,02,04,17,24,-2.70
2019,02,04,17,25,-2.70
2019,02,04,17,26,-2.70
2019,02,04,17,27,-2.70
2019,02,04,17,28,-2.80
2019,02,04,17,29,-2.80
2019,02,04,17,30,-2.80
2019,02,04,17,31,-2.80
2019,02,04,17,32,-2.80
2019,02,04,17,33,-2.80
2019,02,04,17,34,-2.80
2019,02,04,17,35,-2.80
2019,02,04,17,36,-2.90
2019,02,04,17,37,-2.90
2019,02,04,17,38,-2.90
2019,02,04,17,39,-2.90
2019,02,04,17,40,-2.90
2019,02,04,17,41,-2.90
2019,02,04,17,42,-3.00
2019,02,04,17,43,-3.00
2019,02,04,17,44,-3.00
2019,02,04,17,45,-3.10
2019,02,04,17,46,-3.10
2019,02,04,17,47,-3.10
2019,02,04,17,48,-3.10
2019,02,04,17,49,-3.10
2019,02,04,17,50,-3.10
2019,02,04,17,51,-3.10
2019,02,04,17,52,-3.20
2019,02,04,17,53,-3.20
2019,02,04,17,54,-3.20
2019,02,04,17,55,-3.20
2019,02,04,17,56,-3.20
2019,02,04,17,57,-3.20
2019,02,04,17,58,-3.20
2019,02,04,17,59,-3.20
2019,02,04,18,00,-3.20
2019,02,04,18,01,-3.20
2019,02,04,18,02,-3.20
2019,02,04,18,03,-3.20
2019,02,04,18,04,-3.20
2019,02,04,18,05,-3.20
2019,02,04,18,06,-3.20
2019,02,04,18,07,-3.30
2019,02,04,18,08,-3.30
2019,02,04,18,09,-3.30
2019,02,04,18,10,-3.30
2019,02,04,18,11,-3.30
2019,02,04,18,12,-3.30
2019,02,04,18,13,-3.30
2019,02,04,18,14,-3.30
2019,02,04,18,15,-3.30
2019,02,04,18,16,-3.30
2019,02,04,18,17,-3.30
2019,02,04,18,18,-3.30
2019,02,04,18,19,-3.30
2019,02,04,18,20,-3.30
2019,02,04,18,21,-3.30
2019,02,04,18,22,-3.30
2019,02,04,18,23,-3.30
2019,02,04,18,24,-3.30
2019,02,04,18,25,-3.30
2019,02,04,19,15,-3.80
2019,02,04,19,16,-3.90
2019,02,04,19,17,-3.90
2019,02,04,19,18,-3.90
2019,02,04,19,19,-3.90
2019,02,04,19,20,-3.90
2019,02,04,19,21,-3.90
2019,02,04,19,22,-3.90
2019,02,04,19,23,-3.90
2019,02,04,19,24,-3.90
2019,02,04,19,25,-3.90
2019,02,04,19,26,-3.90
2019,02,04,19,27,-3.90
2019,02,04,19,28,-3.90
2019,02,04,19,29,-4.00
2019,02,04,19,30,-4.00
2019,02,04,19,31,-4.00
2019,02,04,19,32,-4.00
2019,02,04,19,33,-4.10
2019,02,04,19,34,-4.10
2019,02,04,19,35,-4.10
2019,02,04,19,36,-4.10
2019,02,04,19,37,-4.10
2019,02,04,19,38,-4.10
2019,02,04,19,39,-4.10
2019,02,04,19,40,-4.10
2019,02,04,19,41,-4.10
2019,02,04,19,42,-4.10
2019,02,04,19,43,-4.10
2019,02,04,19,44,-4.10
2019,02,04,19,45,-4.10
2019,02,04,19,46,-4.20
2019,02,04,19,47,-4.20
2019,02,04,19,48,-4.20
2019,02,04,19,49,-4.20
2019,02,04,19,50,-4.30
2019,02,04,19,51,-4.30
2019,02,04,19,52,-4.30
2019,02,04,19,53,-4.30
2019,02,04,19,54,-4.30
2019,02,04,19,55,-4.30
2019,02,04,19,56,-4.30
2019,02,04,19,57,-4.30
2019,02,04,19,58,-4.30
2019,02,04,19,59,-4.30
2019,02,04,20,00,-4.40
2019,02,04,20,01,-4.40
2019,02,04,20,02,-4.40
2019,02,04,20,03,-4.50
2019,02,04,20,04,-4.50
2019,02,04,20,05,-4.50
2019,02,04,20,06,-4.50
2019,02,04,20,07,-4.50
2019,02,04,20,08,-4.60
2019,02,04,20,09,-4.60
2019,02,04,20,10,-4.60
2019,02,04,20,11,-4.60
2019,02,04,20,12,-4.60
2019,02,04,20,13,-4.70
2019,02,04,20,14,-4.70
2019,02,04,20,15,-4.70
2019,02,04,20,16,-4.70
2019,02,04,20,17,-4.70
2019,02,04,20,18,-4.70
2019,02,04,20,19,-4.70
2019,02,04,20,20,-4.70
2019,02,04,20,21,-4.70
2019,02,04,20,22,-4.80
2019,02,04,20,23,-4.80
2019,02,04,20,24,-4.80
2019,02,04,20,25,-4.80
2019,02,04,20,26,-4.80
2019,02,04,20,27,-4.80
2019,02,04,20,28,-4.80
2019,02,04,20,29,-4.80
2019,02,04,20,30,-4.80
2019,02,04,20,31,-4.80
2019,02,04,20,32,-4.80
2019,02,04,20,33,-4.80
2019,02,04,20,34,-4.80
2019,02,04,20,35,-4.80
2019,02,04,20,36,-4.80
2019,02,04,20,37,-4.80
2019,02,04,20,38,-4.90
2019,02,04,20,39,-4.90
2019,02,04,20,40,-4.90
2019,02,04,20,41,-4.90
2019,02,04,20,42,-4.90
2019,02,04,20,43,-5.00
2019,02,04,20,44,-5.00
2019,02,04,20,45,-5.00
2019,02,04,20,46,-5.10
2019,02,04,20,47,-5.10
2019,02,04,20,48,-5.10
2019,02,04,20,49,-5.10
2019,02,04,20,50,-5.20
2019,02,04,20,51,-5.20
2019,02,04,20,52,-5.20
2019,02,04,20,53,-5.20
2019,02,04,20,54,-5.20
2019,02,04,20,55,-5.20
2019,02,04,20,56,-5.20
2019,02,04,20,57,-5.20
2019,02,04,20,58,-5.20
2019,02,04,20,59,-5.20
2019,02,04,21,00,-5.20
2019,02,04,21,01,-5.20
2019,02,04,21,02,-5.20
2019,02,04,21,03,-5.20
2019,02,04,21,04,-5.20
2019,02,04,21,05,-5.20
2019,02,04,21,06,-5.20
2019,02,04,21,07,-5.30
2019,02,04,21,08,-5.30
2019,02,04,21,09,-5.30
2019,02,04,21,10,-5.30
2019,02,04,21,11,-5.30
2019,02,04,21,12,-5.30
2019,02,04,21,13,-5.30
2019,02,04,21,14,-5.30
2019,02,04,21,15,-5.40
2019,02,04,21,16,-5.40
2019,02,04,21,17,-5.40
2019,02,04,21,18,-5.40
2019,02,04,21,19,-5.40
2019,02,04,21,20,-5.40
2019,02,04,21,21,-5.40
2019,02,04,21,22,-5.40
2019,02,04,21,23,-5.40
2019,02,04,21,24,-5.40
2019,02,04,21,25,-5.40
2019,02,04,21,26,-5.50
2019,02,04,21,27,-5.50
2019,02,04,21,28,-5.50
2019,02,04,21,29,-5.50
2019,02,04,21,30,-5.60
2019,02,04,21,31,-5.60
2019,02,04,21,32,-5.60
2019,02,04,21,33,-5.60
2019,02,04,21,34,-5.60
2019,02,04,21,35,-5.60
2019,02,04,21,36,-5.60
2019,02,04,21,37,-5.70
2019,02,04,21,38,-5.60
2019,02,04,21,39,-5.70
2019,02,04,21,40,-5.70
2019,02,04,21,41,-5.70
2019,02,04,21,42,-5.70
2019,02,04,21,43,-5.70
2019,02,04,21,44,-5.70
2019,02,04,21,45,-5.70
2019,02,04,21,46,-5.70
2019,02,04,21,47,-5.70
2019,02,04,21,48,-5.70
2019,02,04,21,49,-5.70
2019,02,04,22,40,-6.30
2019,02,04,22,41,-6.40
2019,02,04,22,42,-6.40
2019,02,04,22,43,-6.40
2019,02,04,22,44,-6.40
2019,02,04,22,45,-6.40
2019,02,04,22,46,-6.40
2019,02,04,22,47,-6.40
2019,02,04,22,48,-6.40
2019,02,04,22,49,-6.40
2019,02,04,22,50,-6.50
2019,02,04,22,51,-6.50
2019,02,04,22,52,-6.50
2019,02,04,22,53,-6.50
2019,02,04,22,54,-6.50
2019,02,04,22,55,-6.60
2019,02,04,22,56,-6.60
2019,02,04,22,57,-6.60
2019,02,04,22,58,-6.60
2019,02,04,22,59,-6.60
2019,02,04,23,00,-6.60
2019,02,04,23,01,-6.60
2019,02,04,23,02,-6.60
2019,02,04,23,03,-6.60
2019,02,04,23,04,-6.60
2019,02,04,23,05,-6.60
2019,02,04,23,06,-6.70
2019,02,04,23,07,-6.70
2019,02,04,23,08,-6.70
2019,02,04,23,09,-6.70
2019,02,04,23,10,-6.70
2019,02,04,23,11,-6.80